sat.trackr.live / text

‹ back to catalog

THEMIS A

NORAD 30580 · 2007-004A

PAYLOAD ACTIVE UNKNOWN

§ Identity

Operator
Country
US
Launch date
2007-02-17
Launch site
AFETR
Launch vehicle
Mass (kg)
RCS (m²)
0.40

External: N2YO · Heavens-Above · Gunter

§ Orbital elements

Epoch: 2026-05-24T15:17:21.545088Z

Period
1,639.27 min
Inclination
8.0492°
Eccentricity
0.8373644
Mean motion
0.87844138 rev/d
Perigee alt
1,111.8 km
Apogee alt
78,238.4 km
Semi-major
46,053.2 km
B*
2.2805e-2
RAAN
111.7440°
Arg perigee
194.5906°
Mean anomaly
97.3897°
Rev number
4,107

§ Raw data

THEMIS A1 30580U 07004A   26144.63705492 -.00000083  00000+0  22805-1 0  99992 30580   8.0492 111.7440 8373644 194.5906  97.3897  0.87844138 41076

JSON: /api/v1/satellites/30580 · /tle

For live sub-satellite position, see the globe view (requires WebGL).

§ Visibility from observer

Set your observer location to see the next 7 days of passes ≥ 10°. The values pass through the URL so the page stays shareable.

No JS? Fill the form by hand. The geolocation button needs JavaScript.